[[{"header":{"parameterUnit":"m.s-1","parameterCategory":2,"la1":30.2991,"la2":30.254,"lo1":-89.0895,"lo2":-89.0444,"dx":0.0017,"dy":0.0017,"nx":28,"ny":28,"refTime":"2022-12-13T09:00:00:Z","depth":"0","parameterNumber":2,"parameterNumberName":"U-component_of_CURRENTS"},"data":[0,0,0,0,0,0,0,0,0,0,0,0,0,0,0,0,0,0,0,0,0,0,0,0,0,0,0,0,0,0,0,0,0,0,0,0,0,0,0,0,0,0,0,0,0,0,0,0,0,0,0,0,0,0,0,0,0,0,0.1924,0.1924,0,0.1909,0.1909,0.1908,0.1872,0.1871,0.1871,0.1871,0.1856,0.1856,0.1856,0,0,0,0,0,0,0,0,0,0,0,0,0,0.1909,0.1909,0.1924,0.1924,0.1925,0.1909,0.1909,0.1908,0.1872,0.1871,0.1871,0.1871,0.1856,0.1856,0.1856,0,0,0,0,0,0,0,0,0,0,0,0,0,0.1902,0.1909,0.1924,0.1909,0.1907,0.191,0.1909,0.1908,0.1872,0.1871,0.1871,0.1871,0.1856,0.1856,0.1856,0.1864,0,0,0.1856,0.1855,0,0,0,0,0,0,0,0,0.1903,0.1902,0.1911,0.191,0.1908,0.1897,0.1899,0.1895,0.1872,0.188,0.1871,0.187,0.1874,0.1872,0.1863,0.1863,0.1862,0.1855,0.1855,0.1855,0.1855,0,0,0,0,0,0,0,0.1903,0.1903,0.1913,0.1911,0.191,0.1899,0.1897,0.1897,0.1875,0.1879,0.1878,0.1885,0.1872,0.1863,0.1862,0.1862,0.1855,0.1855,0.1855,0.1855,0.189,0.1891,0,0,0,0,0,0,0.1917,0.1903,0.1913,0.1913,0.191,0.19,0.1898,0.1896,0.1875,0.1873,0.1885,0.1883,0.1863,0.1862,0.1862,0.1887,0.1855,0.1855,0.1855,0.1889,0.189,0.1891,0,0,0,0,0,0,0.1916,0.1918,0.1914,0.1912,0.1912,0.1901,0.19,0.1897,0.189,0.1881,0.1877,0.1883,0.1863,0.1862,0.1864,0.1885,0.1855,0.1855,0.1888,0.1889,0.1891,0.1926,0,0,0,0,0,0,0.1916,0.1917,0.1918,0.1913,0.1913,0.1916,0.1901,0.1897,0.1898,0.1895,0.1878,0.1876,0.1863,0.1865,0.1864,0.1884,0.1855,0.1886,0.1888,0.189,0.1924,0.1929,0.1933,0,0,0,0,0,0.1915,0.1925,0.1918,0.192,0.1915,0.1917,0.1914,0.1902,0.1898,0.1894,0.1887,0.1877,0.1877,0.1865,0.1864,0.1885,0.1885,0.1888,0.189,0.1921,0.1928,0.1933,0,0,0,0,0,0,0.1917,0.1922,0.1915,0.1924,0.192,0.1912,0.1915,0.1908,0.1898,0.1898,0.1884,0.1881,0.1895,0.1886,0.1873,0.1902,0.1883,0.1885,0.1907,0.1912,0.1917,0.191,0.1855,0,0,0,0,0,0.192,0.1921,0.1926,0.1927,0.1933,0.1924,0.1924,0.1916,0.1912,0.1906,0.1897,0.1896,0.1904,0.1904,0.1904,0.1916,0.1918,0.1932,0.1936,0.194,0.1935,0.1971,0.1979,0.1899,0.1899,0.1899,0,0,0.1916,0.1922,0.192,0.1927,0.1924,0.1929,0.1921,0.1926,0.1925,0.1909,0.1906,0.1911,0.1912,0.1924,0.1931,0.1918,0.1964,0.1943,0.1947,0.1939,0.1974,0.1982,0.1989,0.19,0.19,0.19,0,0,0.1913,0.1922,0.1922,0.1927,0.1934,0.1936,0.1941,0.1939,0.1935,0.194,0.1935,0.1949,0.1952,0.1956,0.196,0.1993,0.199,0.2001,0.2014,0.205,0.2057,0.2063,0.2074,0.2081,0.2,0.2,0.2,0,0.1906,0.191,0.1922,0.1928,0.1933,0.1942,0.1944,0.1948,0.1943,0.1949,0.1945,0.1969,0.1968,0.1993,0.2002,0.2003,0.2015,0.1992,0.2056,0.2062,0.2067,0.2078,0.2085,0.2002,0.2002,0.2002,0.2002,0,0.1905,0.1907,0.1914,0.1922,0.1931,0.1937,0.1953,0.1962,0.197,0.1974,0.2001,0.2005,0.2018,0.203,0.2023,0.2065,0.2058,0.2061,0.204,0.2078,0.2086,0.2092,0.2005,0.2004,0.2004,0.2003,0,0,0.1876,0.1905,0.1902,0.1902,0.193,0.1931,0.1957,0.1975,0.199,0.2005,0.2029,0.2049,0.2058,0.2063,0.2068,0.2095,0.2143,0.2093,0.2094,0.2101,0.2211,0.2155,0.2156,0.2163,0.2165,0.2166,0.22,0,0.1861,0.1866,0.1891,0.1891,0.1896,0.1927,0.1946,0.1969,0.1995,0.2024,0.2054,0.2078,0.207,0.2084,0.2113,0.2142,0.2163,0.2132,0.2176,0.2176,0.212,0.2163,0.2079,0.2098,0.2206,0.2207,0.2208,0,0.1842,0.185,0.1852,0.1873,0.1879,0.1889,0.1926,0.1946,0.2005,0.2029,0.2071,0.2095,0.214,0.2132,0.2193,0.2178,0.2191,0.2209,0.2211,0.2148,0.2132,0.208,0.2106,0.2052,0.2218,0.2217,0.2216,0,0.1799,0.1816,0.1816,0.1823,0.1858,0.187,0.1893,0.1944,0.1971,0.2038,0.2075,0.2125,0.216,0.2199,0.2229,0.2221,0.2297,0.229,0.2247,0.2243,0.2172,0.2158,0.2145,0.2328,0.2328,0.2328,0.2328,0,0.177,0.1764,0.1794,0.1793,0.1801,0.1837,0.1861,0.19,0.1965,0.2003,0.2071,0.2108,0.2183,0.2232,0.2251,0.2268,0.2314,0.2252,0.2254,0.218,0.2168,0.2116,0.2054,0.2329,0.2329,0.2328,0.2328,0,0.1724,0.174,0.1743,0.1773,0.1782,0.179,0.1843,0.1868,0.1935,0.1994,0.202,0.2114,0.2173,0.2231,0.2296,0.2286,0.2223,0.2302,0.2197,0.2185,0.2073,0.2014,0.1808,0.1789,0.2258,0.2257,0.2256,0,0.1705,0.1702,0.1724,0.1731,0.1746,0.1767,0.1788,0.1848,0.1881,0.1983,0.2011,0.2094,0.2129,0.2207,0.2216,0.224,0.2168,0.2171,0.2132,0.2055,0.1993,0.1825,0.1814,0.2056,0.2053,0.2051,0.205,0,0.1687,0.1694,0.1705,0.1708,0.1722,0.1733,0.1765,0.1781,0.1857,0.1902,0.1958,0.1993,0.2068,0.2059,0.2098,0.2102,0.2021,0.2127,0.2089,0.1859,0.1633,0.162,0.2034,0.2032,0.2033,0.2035,0.2036,0.2036,0.169,0.1685,0.1696,0.1691,0.1699,0.1689,0.1676,0.1712,0.1735,0.1776,0.1857,0.1871,0.1931,0.1965,0.1955,0.1901,0.1856,0.1859,0.1804,0.1649,0.1585,0.1939,0.1913,0.1914,0.1915,0.1915,0.1916,0,0.1697,0.1683,0.1679,0.1658,0.1634,0.1651,0.1653,0.1627,0.1612,0.1663,0.1689,0.1712,0.1698,0.1735,0.1709,0.1616,0.1522,0.1564,0.1344,0.1369,0.1742,0.1695,0.157,0.157,0.157,0.157,0.157,0.157,0.1706,0.1689,0.1662,0.16,0.1577,0.1522,0.1503,0.1473,0.148,0.1455,0.1449,0.1477,0.1495,0.1403,0.1336,0.1337,0.1225,0.1061,0.1108,0.1412,0.1437,0.146,0.1406,0.1222,0.1221,0.07,0.0695,0.0692]},{"header":{"parameterUnit":"m.s-1","parameterCategory":2,"la1":30.2991,"la2":30.254,"lo1":-89.0895,"lo2":-89.0444,"dx":0.0017,"dy":0.0017,"nx":28,"ny":28,"refTime":"2022-12-13T09:00:00:Z","depth":"0","parameterNumber":3,"parameterNumberName":"V-component_of_CURRENTS"},"data":[0,0,0,0,0,0,0,0,0,0,0,0,0,0,0,0,0,0,0,0,0,0,0,0,0,0,0,0,0,0,0,0,0,0,0,0,0,0,0,0,0,0,0,0,0,0,0,0,0,0,0,0,0,0,0,0,0,0,0.0408,0.0408,0,0.0407,0.0407,0.0406,0.0386,0.0386,0.0386,0.0386,0.0341,0.034,0.0339,0,0,0,0,0,0,0,0,0,0,0,0,0,0.0367,0.0367,0.0408,0.0408,0.0408,0.0407,0.0407,0.0406,0.0386,0.0386,0.0386,0.0386,0.0341,0.034,0.0339,0,0,0,0,0,0,0,0,0,0,0,0,0,0.0374,0.0368,0.0408,0.0401,0.0401,0.0407,0.0407,0.0406,0.0386,0.0386,0.0386,0.0385,0.0341,0.034,0.0338,0.0334,0,0,0.0334,0.0333,0,0,0,0,0,0,0,0,0.0373,0.0375,0.0402,0.0401,0.0401,0.04,0.0376,0.0381,0.0386,0.0388,0.0386,0.0385,0.0359,0.0356,0.0352,0.0332,0.033,0.0334,0.0333,0.0332,0.0331,0,0,0,0,0,0,0,0.0373,0.0374,0.0404,0.0402,0.0402,0.039,0.039,0.0377,0.0371,0.0388,0.0387,0.0393,0.0358,0.0353,0.035,0.0329,0.0334,0.0332,0.0331,0.0331,0.0313,0.0313,0,0,0,0,0,0,0.0382,0.0374,0.0404,0.0404,0.039,0.0391,0.0391,0.0397,0.0372,0.037,0.0393,0.0392,0.0356,0.0352,0.0349,0.0358,0.0332,0.033,0.033,0.0313,0.0313,0.0314,0,0,0,0,0,0,0.0381,0.0385,0.0404,0.0392,0.0394,0.0393,0.0399,0.0398,0.0396,0.0378,0.0373,0.0394,0.0356,0.0351,0.0341,0.0355,0.033,0.0328,0.0312,0.0313,0.0313,0.0366,0,0,0,0,0,0,0.038,0.0384,0.0389,0.0393,0.0395,0.0414,0.04,0.0398,0.0402,0.04,0.0377,0.0372,0.0355,0.0343,0.0339,0.0353,0.0327,0.0311,0.0312,0.0313,0.0364,0.0369,0.0373,0,0,0,0,0,0.0379,0.0394,0.039,0.0393,0.0403,0.0415,0.0414,0.0409,0.0402,0.0405,0.0388,0.0373,0.0346,0.0342,0.0338,0.0351,0.0311,0.0312,0.0313,0.0362,0.0368,0.0373,0,0,0,0,0,0,0.0382,0.0394,0.0389,0.0408,0.0412,0.0413,0.042,0.0414,0.0403,0.04,0.0377,0.0371,0.0368,0.0351,0.0348,0.0348,0.0327,0.0327,0.0366,0.0371,0.0375,0.0389,0.0326,0,0,0,0,0,0.0385,0.0397,0.0404,0.0418,0.0423,0.042,0.0423,0.042,0.0414,0.0409,0.0394,0.0378,0.0368,0.0363,0.0349,0.0349,0.0334,0.0354,0.0359,0.0363,0.0371,0.0362,0.0366,0.0317,0.0317,0.0317,0,0,0.0391,0.0399,0.0406,0.0419,0.0422,0.0437,0.0421,0.0431,0.0441,0.0406,0.041,0.0391,0.0371,0.0371,0.0369,0.036,0.0368,0.0364,0.0368,0.0374,0.0363,0.0368,0.0372,0.0318,0.0318,0.0317,0,0,0.0412,0.0416,0.0432,0.044,0.045,0.0451,0.0457,0.0458,0.0455,0.0457,0.0435,0.0427,0.0411,0.0402,0.0395,0.0415,0.039,0.0409,0.0446,0.0437,0.0441,0.0445,0.043,0.0432,0.0414,0.0414,0.0414,0,0.0415,0.0439,0.0439,0.0458,0.0471,0.0461,0.0483,0.0482,0.0477,0.0481,0.0466,0.0451,0.0429,0.0436,0.0441,0.0426,0.0414,0.0428,0.0444,0.0447,0.0449,0.0433,0.0435,0.0417,0.0416,0.0416,0.0416,0,0.0451,0.0467,0.0481,0.0501,0.0513,0.0532,0.0535,0.054,0.0535,0.0533,0.0535,0.0507,0.0499,0.0492,0.0472,0.0483,0.0466,0.0449,0.0433,0.0458,0.0439,0.0439,0.042,0.0419,0.0419,0.0418,0,0,0.0464,0.0498,0.0502,0.0522,0.0539,0.0556,0.0574,0.0592,0.0613,0.0596,0.0621,0.0594,0.0575,0.0566,0.0539,0.0532,0.0534,0.0503,0.0501,0.0493,0.0512,0.0513,0.0513,0.0521,0.0521,0.0522,0.0491,0,0.049,0.0535,0.0545,0.0589,0.0614,0.0617,0.064,0.0652,0.0656,0.0675,0.0648,0.0657,0.0605,0.0608,0.0588,0.0553,0.0538,0.0543,0.0485,0.0483,0.0485,0.0515,0.0578,0.0557,0.0491,0.0491,0.0491,0,0.052,0.0549,0.0595,0.0641,0.0654,0.0677,0.072,0.0741,0.0757,0.0761,0.0756,0.0735,0.0721,0.0677,0.0619,0.0626,0.0571,0.0539,0.0536,0.0521,0.0486,0.0521,0.056,0.0577,0.0491,0.0491,0.0491,0,0.0536,0.0585,0.0626,0.0641,0.0688,0.0712,0.0739,0.0765,0.08,0.082,0.0852,0.0812,0.0813,0.0742,0.0656,0.0642,0.0595,0.0565,0.0513,0.0511,0.0546,0.0548,0.0601,0.0525,0.0525,0.0525,0.0525,0,0.0563,0.0596,0.0638,0.0664,0.0723,0.0743,0.0807,0.0827,0.0872,0.0931,0.0898,0.0934,0.0831,0.0787,0.069,0.0607,0.0614,0.0529,0.051,0.0565,0.0569,0.0568,0.0566,0.0524,0.0524,0.0524,0.0524,0,0.0576,0.06,0.0654,0.0711,0.0732,0.0778,0.0858,0.0909,0.0945,0.1023,0.1039,0.1031,0.0982,0.0868,0.0762,0.0668,0.0596,0.054,0.0608,0.0598,0.0569,0.0567,0.0587,0.0598,0.049,0.049,0.049,0,0.0589,0.0617,0.0689,0.0728,0.0757,0.0826,0.0881,0.0937,0.1001,0.1088,0.1135,0.1118,0.1114,0.0957,0.0803,0.0647,0.0617,0.059,0.0575,0.0592,0.0576,0.0575,0.0583,0.0637,0.0638,0.0639,0.064,0,0.0623,0.0644,0.0691,0.0766,0.0829,0.0907,0.0991,0.1052,0.1134,0.1206,0.1283,0.1289,0.1171,0.1069,0.0863,0.074,0.0647,0.0604,0.0615,0.0698,0.071,0.0704,0.0622,0.0648,0.0648,0.0647,0.0646,0.0646,0.0649,0.0684,0.0741,0.0811,0.0887,0.0979,0.1044,0.1142,0.1249,0.1366,0.138,0.1426,0.1331,0.1074,0.0907,0.0732,0.0706,0.0689,0.0684,0.068,0.071,0.0642,0.065,0.0649,0.0648,0.0648,0.0647,0,0.0679,0.0717,0.0784,0.0869,0.0947,0.0984,0.1113,0.1186,0.1308,0.144,0.1509,0.1574,0.1411,0.1228,0.1011,0.087,0.08,0.0793,0.0829,0.0828,0.0772,0.0799,0.0849,0.0849,0.0849,0.0849,0.0849,0.0849,0.0698,0.0754,0.0781,0.0899,0.096,0.1065,0.1134,0.1252,0.1373,0.1573,0.1691,0.1766,0.1765,0.1358,0.111,0.1002,0.0953,0.0908,0.0864,0.0851,0.0842,0.0833,0.086,0.0922,0.0922,0.096,0.0961,0.0961]}],[{"header":{"parameterUnit":"m.s-1","parameterCategory":2,"la1":30.2991,"la2":30.254,"lo1":-89.0895,"lo2":-89.0444,"dx":0.0017,"dy":0.0017,"nx":28,"ny":28,"refTime":"2022-12-13T09:00:00:Z","depth":"2","parameterNumber":2,"parameterNumberName":"U-component_of_CURRENTS"},"data":[0,0,0,0,0,0,0,0,0,0,0,0,0,0,0,0,0,0,0,0,0,0,0,0,0,0,0,0,0,0,0,0,0,0,0,0,0,0,0,0,0,0,0,0,0,0,0,0,0,0,0,0,0,0,0,0,0,0,0.1864,0.1864,0,0.1851,0.185,0.185,0.1821,0.1821,0.1821,0.182,0.1815,0.1815,0.1815,0,0,0,0,0,0,0,0,0,0,0,0,0,0.1847,0.1847,0.1864,0.1864,0.1864,0.1851,0.185,0.185,0.1821,0.1821,0.1821,0.182,0.1815,0.1815,0.1815,0,0,0,0,0,0,0,0,0,0,0,0,0,0.1841,0.1847,0.1863,0.1852,0.1851,0.1851,0.185,0.1849,0.1821,0.1821,0.182,0.182,0.1815,0.1815,0.1815,0.1818,0,0,0.1815,0.1815,0,0,0,0,0,0,0,0,0.1841,0.1841,0.1853,0.1853,0.1852,0.1842,0.1843,0.1841,0.1821,0.1827,0.182,0.182,0.1828,0.1827,0.1817,0.1818,0.1817,0.1815,0.1815,0.1815,0.1815,0,0,0,0,0,0,0,0.1842,0.1841,0.1853,0.1854,0.1853,0.1843,0.1841,0.1842,0.1825,0.1826,0.1826,0.1833,0.1827,0.1817,0.1817,0.1817,0.1815,0.1815,0.1815,0.1814,0.1851,0.1852,0,0,0,0,0,0,0.1855,0.1842,0.1854,0.1853,0.1852,0.1843,0.1842,0.1841,0.1825,0.1823,0.1833,0.1831,0.1818,0.1817,0.1817,0.1846,0.1815,0.1814,0.1814,0.185,0.1852,0.1853,0,0,0,0,0,0,0.1855,0.1856,0.1854,0.1852,0.1852,0.1845,0.1844,0.1841,0.1838,0.183,0.1828,0.1834,0.1817,0.1817,0.1823,0.1845,0.1814,0.1814,0.1849,0.1851,0.1852,0.1888,0,0,0,0,0,0,0.1854,0.1855,0.1857,0.1853,0.1853,0.1857,0.1844,0.1841,0.1845,0.1843,0.1831,0.1829,0.1817,0.1823,0.1823,0.1844,0.1814,0.1848,0.185,0.1852,0.1886,0.1891,0.1895,0,0,0,0,0,0.1853,0.1863,0.1857,0.1858,0.1855,0.1858,0.1856,0.1847,0.1845,0.1843,0.1838,0.183,0.1836,0.1824,0.1823,0.1845,0.1847,0.1849,0.1852,0.1883,0.189,0.1895,0,0,0,0,0,0,0.1853,0.1861,0.1854,0.1864,0.1862,0.1855,0.1858,0.1854,0.1847,0.1848,0.1837,0.1835,0.1852,0.1844,0.1832,0.1863,0.1843,0.1845,0.1867,0.1873,0.1878,0.187,0.1814,0,0,0,0,0,0.1856,0.1861,0.1865,0.1868,0.1873,0.1866,0.1867,0.1862,0.186,0.1856,0.1851,0.1851,0.1861,0.1862,0.1864,0.1877,0.1879,0.1893,0.1898,0.1902,0.1896,0.1931,0.1939,0.186,0.186,0.186,0,0,0.1854,0.1861,0.1861,0.1868,0.1866,0.1871,0.1865,0.1871,0.1873,0.1859,0.1861,0.1867,0.1868,0.1883,0.189,0.1879,0.1925,0.1905,0.1908,0.19,0.1935,0.1942,0.1949,0.1862,0.1862,0.1861,0,0,0.1853,0.1863,0.1865,0.187,0.1877,0.1879,0.1886,0.1886,0.1884,0.1892,0.1889,0.1905,0.1911,0.1915,0.192,0.1952,0.1951,0.1961,0.1976,0.201,0.2017,0.2023,0.2033,0.204,0.1961,0.1961,0.1962,0,0.1849,0.1852,0.1865,0.1871,0.1877,0.1886,0.1889,0.1894,0.1894,0.1901,0.1899,0.1926,0.1926,0.1952,0.1961,0.1963,0.1975,0.1953,0.2016,0.2022,0.2027,0.2037,0.2044,0.1963,0.1963,0.1963,0.1963,0,0.1847,0.1852,0.1858,0.1867,0.1877,0.1884,0.19,0.191,0.1921,0.1927,0.1956,0.1962,0.1977,0.1989,0.1983,0.2025,0.2018,0.2021,0.2001,0.2038,0.2045,0.2051,0.1966,0.1966,0.1965,0.1965,0,0,0.1825,0.185,0.1849,0.1849,0.1876,0.1879,0.1905,0.1924,0.1939,0.1958,0.1983,0.2005,0.2016,0.2022,0.2028,0.2054,0.2102,0.2053,0.2054,0.206,0.2168,0.2111,0.2112,0.2122,0.2124,0.2125,0.2157,0,0.1811,0.1815,0.1839,0.1842,0.1846,0.1877,0.1896,0.192,0.1946,0.1976,0.2007,0.2033,0.2028,0.2043,0.2072,0.21,0.212,0.2091,0.2133,0.2134,0.2077,0.2119,0.192,0.1928,0.2163,0.2164,0.2165,0,0.1794,0.1801,0.1803,0.1824,0.1831,0.1843,0.188,0.1901,0.1958,0.1982,0.2026,0.2051,0.2096,0.209,0.215,0.2136,0.2149,0.2166,0.2168,0.2104,0.2089,0.193,0.1931,0.2175,0.2174,0.2174,0.2173,0,0.1754,0.1771,0.1771,0.1779,0.1813,0.1826,0.185,0.1901,0.1927,0.1993,0.2029,0.208,0.2117,0.2154,0.2185,0.2178,0.225,0.2244,0.2201,0.2196,0.2027,0.2005,0.2282,0.2281,0.2281,0.2281,0.2281,0,0.1726,0.1723,0.1752,0.1752,0.1762,0.1798,0.1823,0.1861,0.1925,0.1962,0.2029,0.2066,0.214,0.2188,0.2205,0.2222,0.2267,0.2205,0.2206,0.2033,0.2013,0.2224,0.2217,0.2282,0.2282,0.2282,0.2282,0,0.1684,0.1699,0.1704,0.1735,0.1744,0.1755,0.1808,0.1833,0.1899,0.1957,0.1984,0.2074,0.2132,0.2188,0.2249,0.224,0.2264,0.2253,0.2033,0.2008,0.2178,0.2173,0.221,0.2208,0.2207,0.2206,0.2205,0,0.1666,0.1663,0.1687,0.1695,0.1711,0.1734,0.1756,0.1815,0.1848,0.1948,0.1975,0.2056,0.2086,0.2158,0.2148,0.2163,0.2234,0.2,0.1946,0.2176,0.2174,0.2171,0.2167,0.1734,0.173,0.1726,0.1723,0,0.1648,0.1657,0.1668,0.1673,0.1689,0.1701,0.1735,0.175,0.1826,0.1866,0.1915,0.1945,0.2001,0.1924,0.1955,0.194,0.1984,0.1922,0.2229,0.1787,0.1732,0.1729,0.174,0.1688,0.1692,0.1694,0.1696,0.1697,0.1651,0.1647,0.166,0.1656,0.1667,0.1659,0.1645,0.1679,0.1698,0.1721,0.1795,0.1769,0.1782,0.1716,0.1666,0.1637,0.1788,0.1715,0.1725,0.174,0.1683,0.1629,0.1554,0.1557,0.1559,0.1561,0.1563,0,0.1654,0.1644,0.1642,0.1625,0.1602,0.1623,0.1623,0.1585,0.1562,0.1582,0.1584,0.1432,0.1368,0.1391,0.1279,0.129,0.1259,0.1247,0.1187,0.1223,0.1254,0.1171,0.0907,0.0905,0.0903,0.0901,0,0,0.1662,0.1645,0.162,0.1563,0.1545,0.149,0.147,0.1414,0.1391,0.1308,0.1253,0.1315,0.1347,0.111,0.1079,0.0973,0.109,0.0929,0.1455,0.1421,0.1449,0.1526,0.1439,0,0,0,0,0]},{"header":{"parameterUnit":"m.s-1","parameterCategory":2,"la1":30.2991,"la2":30.254,"lo1":-89.0895,"lo2":-89.0444,"dx":0.0017,"dy":0.0017,"nx":28,"ny":28,"refTime":"2022-12-13T09:00:00:Z","depth":"2","parameterNumber":3,"parameterNumberName":"V-component_of_CURRENTS"},"data":[0,0,0,0,0,0,0,0,0,0,0,0,0,0,0,0,0,0,0,0,0,0,0,0,0,0,0,0,0,0,0,0,0,0,0,0,0,0,0,0,0,0,0,0,0,0,0,0,0,0,0,0,0,0,0,0,0,0,0.0294,0.0295,0,0.0295,0.0295,0.0295,0.028,0.028,0.028,0.028,0.024,0.0239,0.0238,0,0,0,0,0,0,0,0,0,0,0,0,0,0.0254,0.0255,0.0294,0.0295,0.0295,0.0295,0.0295,0.0295,0.028,0.028,0.028,0.028,0.024,0.0239,0.0238,0,0,0,0,0,0,0,0,0,0,0,0,0,0.0262,0.0255,0.0294,0.0291,0.0291,0.0295,0.0295,0.0295,0.028,0.028,0.028,0.028,0.0241,0.0239,0.0238,0.0229,0,0,0.0233,0.0232,0,0,0,0,0,0,0,0,0.0261,0.0263,0.0291,0.0291,0.0291,0.0291,0.0266,0.0272,0.028,0.028,0.028,0.028,0.0256,0.0253,0.0248,0.0227,0.0226,0.0233,0.0232,0.0231,0.0231,0,0,0,0,0,0,0,0.0261,0.0262,0.0291,0.0291,0.0292,0.0281,0.0281,0.0267,0.0264,0.028,0.028,0.0286,0.0255,0.025,0.0247,0.0225,0.0233,0.0231,0.023,0.023,0.0211,0.0211,0,0,0,0,0,0,0.027,0.0262,0.0291,0.0291,0.028,0.0282,0.0282,0.0288,0.0266,0.0264,0.0286,0.0286,0.0253,0.0249,0.0246,0.0256,0.0231,0.023,0.0229,0.021,0.0211,0.0211,0,0,0,0,0,0,0.0269,0.0273,0.0291,0.028,0.0282,0.0283,0.0289,0.0288,0.0288,0.0272,0.0268,0.0289,0.0252,0.0248,0.0239,0.0254,0.0229,0.0228,0.021,0.021,0.0211,0.0264,0,0,0,0,0,0,0.0268,0.0272,0.0277,0.028,0.0283,0.0301,0.029,0.0288,0.0294,0.0293,0.0272,0.0268,0.0252,0.0242,0.0238,0.0251,0.0226,0.0209,0.021,0.0211,0.0261,0.0266,0.027,0,0,0,0,0,0.0266,0.0281,0.0277,0.0281,0.029,0.0301,0.0301,0.0299,0.0294,0.0298,0.0284,0.0269,0.0244,0.0241,0.0236,0.025,0.0209,0.021,0.0211,0.026,0.0265,0.027,0,0,0,0,0,0,0.0269,0.0281,0.0277,0.0295,0.0299,0.0301,0.0308,0.0304,0.0295,0.0294,0.0272,0.0267,0.0265,0.0249,0.0246,0.0246,0.0225,0.0225,0.0264,0.0269,0.0273,0.0286,0.0225,0,0,0,0,0,0.0272,0.0284,0.0291,0.0304,0.0309,0.0307,0.0311,0.0309,0.0305,0.0302,0.0289,0.0274,0.0265,0.026,0.0246,0.0245,0.023,0.0251,0.0255,0.0259,0.0266,0.0256,0.026,0.0214,0.0214,0.0214,0,0,0.0277,0.0286,0.0293,0.0305,0.0308,0.0323,0.0309,0.032,0.033,0.0298,0.0305,0.0287,0.0267,0.0267,0.0265,0.0257,0.0263,0.026,0.0264,0.0269,0.0257,0.0262,0.0266,0.0215,0.0215,0.0215,0,0,0.0298,0.0302,0.0318,0.0326,0.0336,0.0337,0.0343,0.0346,0.0345,0.0348,0.0329,0.0321,0.0307,0.0297,0.029,0.0309,0.0285,0.0304,0.0339,0.0329,0.0333,0.0336,0.0321,0.0322,0.0309,0.0309,0.0309,0,0.0302,0.0325,0.0324,0.0342,0.0356,0.0348,0.0369,0.0368,0.0366,0.037,0.0358,0.0344,0.0323,0.0329,0.0335,0.032,0.0308,0.0323,0.0336,0.0338,0.0341,0.0324,0.0325,0.0311,0.0311,0.0311,0.0311,0,0.0335,0.0352,0.0365,0.0385,0.0397,0.0415,0.0419,0.0425,0.0423,0.0421,0.0424,0.0398,0.039,0.0383,0.0365,0.0374,0.0358,0.0341,0.0325,0.0349,0.033,0.033,0.0315,0.0314,0.0314,0.0313,0,0,0.0351,0.0382,0.0387,0.0406,0.0422,0.0439,0.0457,0.0474,0.0494,0.0481,0.0504,0.0479,0.0463,0.0453,0.0428,0.042,0.0421,0.0393,0.0391,0.0383,0.0397,0.0396,0.0396,0.0408,0.0409,0.0409,0.0377,0,0.0377,0.0419,0.0427,0.0471,0.0495,0.0498,0.052,0.0531,0.0536,0.0554,0.0528,0.0538,0.049,0.0495,0.0475,0.0439,0.0424,0.0431,0.0371,0.037,0.037,0.0397,0.0368,0.0339,0.0377,0.0377,0.0377,0,0.0407,0.0434,0.0479,0.0521,0.0533,0.0558,0.0598,0.0618,0.0632,0.0635,0.0631,0.0612,0.0598,0.0558,0.0501,0.0508,0.0456,0.0423,0.0421,0.0403,0.0369,0.032,0.0337,0.0376,0.0376,0.0376,0.0376,0,0.0425,0.0471,0.051,0.0525,0.0569,0.0593,0.062,0.0643,0.0676,0.0694,0.0723,0.0684,0.0686,0.0617,0.0534,0.0522,0.0472,0.0444,0.0391,0.039,0.0346,0.0341,0.0403,0.0403,0.0403,0.0403,0.0403,0,0.0451,0.0485,0.0525,0.055,0.0607,0.0627,0.0688,0.0707,0.0748,0.0803,0.077,0.0801,0.0704,0.0659,0.0565,0.0483,0.049,0.0406,0.0388,0.0363,0.036,0.0375,0.0372,0.0402,0.0402,0.0402,0.0403,0,0.0466,0.0489,0.0542,0.0596,0.0618,0.0663,0.074,0.0787,0.0821,0.0894,0.0909,0.0895,0.0846,0.0737,0.0632,0.054,0.0451,0.0414,0.0391,0.0371,0.0365,0.0365,0.0361,0.036,0.036,0.036,0.036,0,0.0479,0.0506,0.0576,0.0615,0.0644,0.0712,0.0765,0.0817,0.0877,0.0956,0.0998,0.0979,0.0966,0.0809,0.0646,0.049,0.0465,0.0363,0.0337,0.0382,0.0363,0.0364,0.0364,0.0291,0.029,0.0289,0.0289,0,0.0508,0.0531,0.0577,0.0651,0.0714,0.0789,0.0869,0.0926,0.1004,0.1066,0.1131,0.1128,0.0996,0.0833,0.0628,0.0507,0.0387,0.035,0.0403,0.0315,0.0316,0.0298,0.03,0.0284,0.0285,0.0285,0.0285,0.0285,0.0532,0.0566,0.0624,0.0694,0.077,0.0859,0.0918,0.1007,0.1103,0.1186,0.1196,0.1174,0.1014,0.0733,0.0554,0.0359,0.0389,0.0291,0.0293,0.0294,0.0302,0.0303,0.027,0.027,0.027,0.0271,0.0271,0,0.0556,0.0597,0.0663,0.0748,0.0825,0.0866,0.0985,0.1033,0.1137,0.1204,0.124,0.1038,0.0886,0.0698,0.0421,0.0274,0.0234,0.0198,0.0184,0.019,0.0195,0.0197,0.0137,0.0136,0.0136,0.0135,0,0,0.0572,0.0626,0.0655,0.0772,0.0839,0.0936,0.1,0.1065,0.1123,0.1147,0.1128,0.1121,0.0922,0.0686,0.0477,0.0316,0.0279,0.0261,0.0383,0.0398,0.0405,0.0262,0.0273,0,0,0,0,0]}],[{"header":{"parameterUnit":"m.s-1","parameterCategory":2,"la1":30.2991,"la2":30.254,"lo1":-89.0895,"lo2":-89.0444,"dx":0.0017,"dy":0.0017,"nx":28,"ny":28,"refTime":"2022-12-13T09:00:00:Z","depth":"4","parameterNumber":2,"parameterNumberName":"U-component_of_CURRENTS"},"data":[0,0,0,0,0,0,0,0,0,0,0,0,0,0,0,0,0,0,0,0,0,0,0,0,0,0,0,0,0,0,0,0,0,0,0,0,0,0,0,0,0,0,0,0,0,0,0,0,0,0,0,0,0,0,0,0,0,0,0.0934,0.0934,0,0.0993,0.0994,0.0995,0.1053,0.1054,0.1054,0.1055,0.1118,0.112,0.1121,0,0,0,0,0,0,0,0,0,0,0,0,0,0.0911,0.0911,0.0934,0.0934,0.0935,0.0993,0.0994,0.0995,0.1053,0.1054,0.1054,0.1055,0.1118,0.1119,0.1121,0,0,0,0,0,0,0,0,0,0,0,0,0,0.0943,0.0911,0.0934,0.0968,0.0971,0.0992,0.0994,0.0995,0.1053,0.1054,0.1054,0.1055,0.1117,0.1119,0.1121,0.112,0,0,0.1127,0.1128,0,0,0,0,0,0,0,0,0.0942,0.0945,0.0963,0.0966,0.0969,0.1013,0.1009,0.1036,0.1053,0.1026,0.1055,0.1055,0.1081,0.1086,0.11,0.1123,0.1125,0.1127,0.1128,0.1129,0.113,0,0,0,0,0,0,0,0.0939,0.0943,0.0961,0.0963,0.0967,0.0994,0.0999,0.1015,0.1052,0.1028,0.1032,0.1032,0.1083,0.1098,0.1102,0.1126,0.1127,0.1129,0.113,0.1131,0.1223,0.1224,0,0,0,0,0,0,0.0922,0.094,0.0959,0.0962,0.0953,0.0993,0.0999,0.1001,0.1051,0.1059,0.1032,0.1035,0.1095,0.11,0.1105,0.1166,0.1129,0.1131,0.1132,0.1222,0.1223,0.1225,0,0,0,0,0,0,0.0921,0.0923,0.0956,0.095,0.0955,0.0992,0.0994,0.1002,0.1042,0.1053,0.1062,0.1066,0.1095,0.1102,0.114,0.1166,0.1132,0.1134,0.122,0.1222,0.1224,0.125,0,0,0,0,0,0,0.092,0.0922,0.0935,0.0948,0.0955,0.0983,0.0994,0.1003,0.1038,0.1044,0.1085,0.109,0.1097,0.1137,0.1142,0.1168,0.1135,0.1219,0.1221,0.1224,0.1247,0.1252,0.1256,0,0,0,0,0,0.0919,0.0925,0.0935,0.0938,0.0965,0.0983,0.099,0.1021,0.1039,0.106,0.1089,0.109,0.1157,0.114,0.1145,0.1173,0.1218,0.1221,0.1223,0.1245,0.1251,0.1256,0,0,0,0,0,0,0.0927,0.0931,0.0943,0.0952,0.0973,0.0992,0.1014,0.1034,0.1074,0.1088,0.1103,0.1111,0.1155,0.1161,0.1142,0.1208,0.1189,0.1193,0.1203,0.1209,0.1214,0.1213,0.1137,0,0,0,0,0,0.0931,0.0938,0.0948,0.0962,0.097,0.0999,0.1016,0.1037,0.1063,0.1084,0.1113,0.1143,0.1168,0.1186,0.1209,0.1241,0.1245,0.1264,0.1269,0.1273,0.1277,0.1313,0.1321,0.1235,0.1235,0.1234,0,0,0.0937,0.0942,0.0948,0.0965,0.0985,0.1002,0.1013,0.1044,0.1068,0.1082,0.1137,0.1162,0.118,0.122,0.1241,0.123,0.1298,0.1277,0.128,0.1282,0.1316,0.1325,0.1332,0.1237,0.1236,0.1236,0,0,0.0945,0.096,0.0966,0.0984,0.101,0.1024,0.1036,0.107,0.1099,0.1141,0.1162,0.1203,0.1243,0.1264,0.1275,0.1319,0.1322,0.1334,0.1357,0.1392,0.1399,0.1405,0.141,0.1416,0.1336,0.1336,0.1336,0,0.0958,0.0963,0.0975,0.0989,0.1004,0.1034,0.105,0.1079,0.1128,0.1157,0.1163,0.1247,0.1261,0.1307,0.1324,0.133,0.1343,0.1331,0.1397,0.1404,0.141,0.1413,0.142,0.1337,0.1337,0.1337,0.1337,0,0.0965,0.0981,0.0988,0.1011,0.1031,0.1052,0.108,0.1122,0.1158,0.1191,0.1258,0.1284,0.1337,0.1347,0.1347,0.1405,0.1396,0.1397,0.1379,0.142,0.142,0.1427,0.134,0.1339,0.1339,0.1338,0,0,0.0961,0.0986,0.0993,0.1008,0.1045,0.106,0.1104,0.115,0.1191,0.1249,0.1302,0.135,0.1386,0.1402,0.1418,0.1442,0.1487,0.1442,0.1443,0.144,0.1551,0.1434,0.143,0.1507,0.1509,0.151,0.153,0,0.0966,0.0986,0.1001,0.1034,0.1043,0.1086,0.112,0.1173,0.1223,0.1286,0.1334,0.1391,0.14,0.1432,0.1464,0.1487,0.1509,0.1481,0.1519,0.1519,0.1405,0.1435,0.1515,0.1535,0.1536,0.1537,0.1538,0,0.0961,0.0976,0.1,0.1038,0.1048,0.1082,0.1149,0.1186,0.1274,0.1316,0.1393,0.1434,0.1499,0.149,0.1559,0.1546,0.1555,0.156,0.1561,0.1448,0.1415,0.149,0.155,0.1549,0.1548,0.1547,0.1547,0,0.0937,0.0973,0.0992,0.1007,0.1056,0.1094,0.1133,0.121,0.1248,0.1351,0.1395,0.1479,0.1527,0.1567,0.1594,0.1588,0.1646,0.1637,0.1536,0.1527,0.1615,0.1608,0.1678,0.1678,0.1678,0.1678,0.1678,0,0.092,0.0941,0.0991,0.1005,0.1045,0.1087,0.1146,0.1203,0.128,0.1328,0.1419,0.1461,0.1553,0.1598,0.1611,0.1591,0.1669,0.154,0.1529,0.1623,0.1618,0.1619,0.1612,0.1679,0.1679,0.1678,0.1678,0,0.0889,0.092,0.0946,0.1007,0.1033,0.1067,0.1149,0.1184,0.1268,0.1333,0.1369,0.147,0.1525,0.1584,0.1639,0.1597,0.1595,0.1567,0.1654,0.1647,0.1445,0.144,0.145,0.1446,0.1443,0.144,0.1438,0,0.0872,0.088,0.0944,0.0966,0.1003,0.1061,0.1095,0.1178,0.1207,0.132,0.1335,0.1429,0.1487,0.1469,0.1536,0.1547,0.1531,0.151,0.1482,0.1436,0.1425,0.1424,0.1423,0.1432,0.1432,0.1431,0.143,0,0.0837,0.0868,0.0893,0.0934,0.0977,0.1007,0.1063,0.1073,0.1159,0.1249,0.1276,0.1308,0.136,0.1399,0.1418,0.1424,0.1513,0.1475,0.1482,0.1455,0.1415,0.1407,0.141,0.1418,0.142,0.1421,0.1422,0,0.0817,0.0824,0.0858,0.0889,0.093,0.0931,0.0972,0.0997,0.1032,0.1148,0.1155,0.1255,0.1346,0.1334,0.1352,0.1349,0.1326,0.1274,0.129,0.1303,0.1246,0.1173,0.1093,0,0,0,0,0,0.0792,0.0789,0.0809,0.0825,0.0857,0.0882,0.0931,0.0967,0.1051,0.1038,0.109,0.1133,0.1165,0.121,0.1179,0.1282,0.133,0.1237,0.1277,0.1355,0.1368,0.1315,0,0,0,0,0,0,0.0773,0.0791,0.0785,0.0758,0.0761,0.0782,0.0811,0.0871,0.0857,0.0957,0.0981,0.1058,0.1108,0.1183,0.1161,0.1173,0.1169,0.1296,0.1292,0.1348,0.136,0.137,0.132,0,0,0,0,0]},{"header":{"parameterUnit":"m.s-1","parameterCategory":2,"la1":30.2991,"la2":30.254,"lo1":-89.0895,"lo2":-89.0444,"dx":0.0017,"dy":0.0017,"nx":28,"ny":28,"refTime":"2022-12-13T09:00:00:Z","depth":"4","parameterNumber":3,"parameterNumberName":"V-component_of_CURRENTS"},"data":[0,0,0,0,0,0,0,0,0,0,0,0,0,0,0,0,0,0,0,0,0,0,0,0,0,0,0,0,0,0,0,0,0,0,0,0,0,0,0,0,0,0,0,0,0,0,0,0,0,0,0,0,0,0,0,0,0,0,0.0044,0.0044,0,0.005,0.005,0.005,0.0054,0.0054,0.0054,0.0054,0.0025,0.0024,0.0023,0,0,0,0,0,0,0,0,0,0,0,0,0,0.0034,0.0034,0.0044,0.0044,0.0044,0.005,0.005,0.005,0.0054,0.0054,0.0054,0.0054,0.0025,0.0024,0.0023,0,0,0,0,0,0,0,0,0,0,0,0,0,0.0039,0.0034,0.0044,0.0047,0.0047,0.005,0.005,0.005,0.0054,0.0054,0.0054,0.0054,0.0025,0.0024,0.0023,0.0015,0,0,0.0019,0.0019,0,0,0,0,0,0,0,0,0.0039,0.004,0.0046,0.0046,0.0047,0.0051,0.0036,0.0037,0.0054,0.0052,0.0054,0.0054,0.003,0.0029,0.003,0.0014,0.0013,0.0019,0.0019,0.0018,0.0018,0,0,0,0,0,0,0,0.0039,0.0039,0.0046,0.0046,0.0047,0.0047,0.0048,0.0036,0.004,0.0052,0.0052,0.0053,0.003,0.0032,0.003,0.0012,0.0019,0.0018,0.0018,0.0017,-0.0002,-0.0002,0,0,0,0,0,0,0.0038,0.0039,0.0046,0.0047,0.0043,0.0048,0.0048,0.005,0.0041,0.004,0.0053,0.0053,0.0034,0.0031,0.0029,0.0032,0.0018,0.0017,0.0016,-0.0002,-0.0002,-0.0002,0,0,0,0,0,0,0.0038,0.0038,0.0046,0.0043,0.0044,0.0048,0.0049,0.005,0.0054,0.0042,0.004,0.0056,0.0034,0.003,0.0024,0.003,0.0016,0.0015,-0.0003,-0.0002,-0.0002,0.0029,0,0,0,0,0,0,0.0037,0.0038,0.0041,0.0043,0.0044,0.0052,0.0049,0.005,0.0054,0.0055,0.0044,0.0042,0.0033,0.0026,0.0023,0.0028,0.0014,-0.0003,-0.0003,-0.0002,0.0028,0.003,0.0032,0,0,0,0,0,0.0037,0.0038,0.0041,0.0042,0.0047,0.0052,0.0053,0.0055,0.0054,0.0059,0.0053,0.0042,0.0026,0.0025,0.0021,0.0026,-0.0003,-0.0003,-0.0002,0.0026,0.003,0.0032,0,0,0,0,0,0,0.0035,0.0039,0.0042,0.0044,0.005,0.0053,0.0055,0.0057,0.0056,0.0056,0.0044,0.0041,0.0038,0.0027,0.0026,0.0022,0.001,0.001,0.0033,0.0036,0.0038,0.0049,0.0013,0,0,0,0,0,0.0036,0.0039,0.0043,0.0047,0.0049,0.0053,0.0056,0.0059,0.0058,0.0059,0.0052,0.0044,0.0037,0.0032,0.0024,0.002,0.0007,0.0021,0.0023,0.0025,0.0031,0.0018,0.002,-0.0,-0.0,-0.0,0,0,0.0037,0.004,0.0042,0.0048,0.0051,0.006,0.0055,0.0061,0.0071,0.0054,0.0061,0.0051,0.0037,0.0037,0.0034,0.0028,0.0023,0.0026,0.0028,0.0033,0.0018,0.002,0.0022,-0.0,-0.0,-0.0,0,0,0.0043,0.0043,0.0049,0.0056,0.0063,0.0065,0.0068,0.0073,0.0078,0.0082,0.0073,0.0068,0.0057,0.0052,0.0047,0.0056,0.0036,0.0052,0.0073,0.0059,0.0061,0.0062,0.0044,0.0044,0.0053,0.0053,0.0053,0,0.0046,0.0055,0.0052,0.0063,0.0071,0.0069,0.0082,0.0085,0.009,0.0096,0.0087,0.008,0.0065,0.0069,0.0073,0.0062,0.005,0.0063,0.0063,0.0064,0.0065,0.0046,0.0045,0.0055,0.0054,0.0054,0.0054,0,0.006,0.0069,0.0073,0.0086,0.0092,0.0103,0.0108,0.0117,0.0117,0.0122,0.0126,0.0109,0.0107,0.0099,0.0088,0.009,0.0078,0.0068,0.0057,0.0069,0.0048,0.0047,0.0057,0.0056,0.0056,0.0055,0,0,0.0064,0.008,0.0083,0.0097,0.0107,0.0117,0.0131,0.0146,0.0162,0.0158,0.0173,0.0158,0.0152,0.0146,0.013,0.0116,0.0106,0.0098,0.0096,0.0083,0.0075,0.0072,0.0069,0.0097,0.0097,0.0097,0.0056,0,0.0079,0.0103,0.0106,0.0133,0.0146,0.0153,0.0168,0.0181,0.0188,0.02,0.0185,0.0192,0.0169,0.0171,0.0154,0.0122,0.0104,0.0118,0.0063,0.0061,0.006,0.0069,0.0097,0.0055,0.0055,0.0055,0.0054,0,0.0093,0.0109,0.0135,0.0163,0.017,0.0188,0.0218,0.0232,0.0245,0.025,0.0253,0.0242,0.0231,0.0204,0.0158,0.0169,0.0126,0.0094,0.0092,0.0079,0.0056,0.0041,0.0051,0.0051,0.0052,0.0052,0.0052,0,0.0101,0.0131,0.0154,0.0164,0.0191,0.0213,0.0231,0.0252,0.0272,0.0287,0.03,0.0283,0.0278,0.0229,0.017,0.0165,0.0109,0.0092,0.0047,0.0046,0.0046,0.0045,0.0053,0.0053,0.0053,0.0053,0.0053,0,0.0115,0.0136,0.0165,0.018,0.0218,0.0232,0.0273,0.029,0.0315,0.0343,0.033,0.0342,0.0285,0.0248,0.0184,0.0117,0.0121,0.0055,0.0039,0.0059,0.006,0.0044,0.0044,0.0052,0.0052,0.0052,0.0053,0,0.0119,0.0136,0.0166,0.0204,0.0222,0.025,0.0304,0.0332,0.0354,0.039,0.0398,0.0389,0.0352,0.0284,0.0203,0.0142,0.0072,0.0042,0.0072,0.0057,0.001,0.0012,-0.0009,-0.001,-0.001,-0.001,-0.0011,0,0.012,0.0135,0.0182,0.0206,0.0229,0.0276,0.0309,0.0349,0.0378,0.0418,0.0431,0.0418,0.0401,0.0293,0.0212,0.0095,0.0071,0.0024,0.0015,0.0019,0.0005,0.0007,0.0009,-0.0011,-0.0011,-0.0011,-0.0011,0,0.0119,0.0135,0.0161,0.0212,0.0255,0.0301,0.0352,0.0378,0.0424,0.0448,0.0472,0.0432,0.0388,0.0304,0.0217,0.0127,0.0052,0.002,0.002,0.0011,0.0017,0.0004,0.0006,-0.0012,-0.0012,-0.0012,-0.0012,0,0.0114,0.0131,0.0166,0.0214,0.0264,0.0311,0.0343,0.0389,0.0424,0.0473,0.048,0.0448,0.0435,0.0319,0.0237,0.0157,0.0126,0.0079,0.0075,0.0075,0.0109,0.013,0.0127,0,0,0,0,0,0.0108,0.013,0.0167,0.022,0.0268,0.0302,0.0362,0.0391,0.0441,0.0464,0.0477,0.0444,0.0353,0.0315,0.0235,0.0205,0.0092,0.0104,0.003,-0.0018,-0.0017,0.0009,0,0,0,0,0,0,0.0104,0.0135,0.016,0.0214,0.0251,0.0308,0.0349,0.0385,0.0399,0.0441,0.04,0.0404,0.0315,0.0404,0.023,0.0207,0.0142,0.0071,0.0068,-0.0019,-0.0018,-0.0017,0.001,0,0,0,0,0]}]]